Hourly Weather Alimgulovo

Today, 8 March, Monday

Time Temperature Precipitation Wind Pressure Humidity
00:00 -18°C° 0 mm 2 mps 727 mmHg 96%
01:00 -19°C° 0 mm 3 mps 727 mmHg 96%
02:00 -19°C° 0 mm 3 mps 726 mmHg 96%
03:00 -19°C° 0 mm 3 mps 726 mmHg 96%
04:00 -19°C° 0 mm 4 mps 726 mmHg 97%
05:00 -19°C° 0.2 mm 5 mps 725 mmHg 96%
06:00 -18°C° 0.2 mm 6 mps 725 mmHg 95%
07:00 -18°C° 0.2 mm 7 mps 724 mmHg 94%
08:00 -17°C° 0.4 mm 8 mps 724 mmHg 93%
09:00 -16°C° 0.4 mm 9 mps 724 mmHg 92%
10:00 -14°C° 0 mm 10 mps 724 mmHg 92%
11:00 -13°C° 0.4 mm 10 mps 724 mmHg 92%
12:00 -13°C° 0.4 mm 10 mps 724 mmHg 92%
13:00 -12°C° 0.4 mm 10 mps 724 mmHg 92%
14:00 -10°C° 0.4 mm 10 mps 724 mmHg 93%
15:00 -10°C° 0.4 mm 9 mps 724 mmHg 93%
16:00 -9°C° 0.4 mm 9 mps 724 mmHg 93%
17:00 -8°C° 0.3 mm 8 mps 724 mmHg 93%
18:00 -8°C° 0.3 mm 8 mps 724 mmHg 93%
19:00 -8°C° 0.3 mm 7 mps 724 mmHg 93%
20:00 -8°C° 0.2 mm 7 mps 724 mmHg 93%
21:00 -8°C° 0.2 mm 7 mps 724 mmHg 94%
22:00 -8°C° 0.2 mm 8 mps 724 mmHg 94%
23:00 -8°C° 0.5 mm 8 mps 724 mmHg 94%

Tomorrow, 9 March, Tuesday

Time Temperature Precipitation Wind Pressure Humidity
00:00 -8°C° 0.5 mm 8 mps 724 mmHg 94%
01:00 -9°C° 0.5 mm 9 mps 723 mmHg 94%
02:00 -9°C° 0.4 mm 9 mps 723 mmHg 94%
03:00 -9°C° 0.4 mm 9 mps 723 mmHg 94%
04:00 -10°C° 0.4 mm 8 mps 723 mmHg 93%
05:00 -10°C° 0.3 mm 8 mps 724 mmHg 93%
06:00 -9°C° 0.3 mm 7 mps 724 mmHg 93%
07:00 -9°C° 0.3 mm 6 mps 725 mmHg 93%
08:00 -8°C° 0.2 mm 5 mps 725 mmHg 90%
09:00 -9°C° 0.2 mm 4 mps 726 mmHg 87%
10:00 -8°C° 0.2 mm 3 mps 726 mmHg 84%
11:00 -8°C° 0 mm 3 mps 726 mmHg 81%
12:00 -6°C° 0 mm 2 mps 726 mmHg 77%
13:00 -4°C° 0 mm 1 mps 726 mmHg 74%
14:00 -4°C° 0 mm 1 mps 726 mmHg 80%
15:00 -5°C° 0 mm 2 mps 726 mmHg 85%
16:00 -5°C° 0 mm 2 mps 726 mmHg 91%
17:00 -6°C° 0.3 mm 3 mps 725 mmHg 93%
18:00 -6°C° 0.3 mm 3 mps 725 mmHg 94%
19:00 -7°C° 0.3 mm 4 mps 724 mmHg 96%
20:00 -7°C° 0.4 mm 4 mps 724 mmHg 96%
21:00 -7°C° 0.4 mm 5 mps 723 mmHg 95%
22:00 -7°C° 0.4 mm 5 mps 723 mmHg 95%
23:00 -7°C° 0.3 mm 5 mps 722 mmHg 95%

Day after tomorrow, 10 March, Wednesday

Time Temperature Precipitation Wind Pressure Humidity
00:00 -7°C° 0.3 mm 5 mps 721 mmHg 95%
01:00 -7°C° 0.3 mm 5 mps 720 mmHg 95%
02:00 -8°C° 0.6 mm 6 mps 720 mmHg 95%
03:00 -8°C° 0.6 mm 6 mps 719 mmHg 95%
04:00 -8°C° 0.6 mm 6 mps 718 mmHg 95%
05:00 -11°C° 0.2 mm 7 mps 718 mmHg 94%
06:00 -13°C° 0.2 mm 7 mps 718 mmHg 93%
07:00 -17°C° 0.2 mm 7 mps 718 mmHg 92%
08:00 -15°C° 0.1 mm 7 mps 718 mmHg 91%
09:00 -15°C° 0.1 mm 7 mps 719 mmHg 91%
10:00 -16°C° 0.1 mm 8 mps 719 mmHg 90%
11:00 -16°C° 0.1 mm 8 mps 720 mmHg 90%
12:00 -16°C° 0.1 mm 8 mps 721 mmHg 90%
13:00 -17°C° 0.1 mm 8 mps 721 mmHg 90%
14:00 -17°C° 0.1 mm 7 mps 721 mmHg 91%
15:00 -18°C° 0.1 mm 7 mps 722 mmHg 91%
16:00 -19°C° 0.1 mm 7 mps 722 mmHg 92%
17:00 -18°C° 0.1 mm 6 mps 723 mmHg 92%
18:00 -20°C° 0.1 mm 6 mps 723 mmHg 93%
19:00 -20°C° 0.1 mm 6 mps 724 mmHg 94%
20:00 -20°C° 0.1 mm 5 mps 724 mmHg 94%
21:00 -20°C° 0.1 mm 4 mps 724 mmHg 94%
22:00 -23°C° 0.1 mm 4 mps 724 mmHg 95%
23:00 -23°C° 0 mm 4 mps 724 mmHg 95%

11 March, Thursday

Time Temperature Precipitation Wind Pressure Humidity
00:00 -24°C° 0 mm 4 mps 724 mmHg 96%
01:00 -24°C° 0 mm 3 mps 724 mmHg 97%
02:00 -25°C° 0 mm 4 mps 725 mmHg 97%
03:00 -25°C° 0 mm 4 mps 725 mmHg 96%
04:00 -25°C° 0 mm 4 mps 726 mmHg 96%
05:00 -25°C° 0.1 mm 4 mps 726 mmHg 96%
06:00 -26°C° 0.1 mm 4 mps 726 mmHg 96%
07:00 -26°C° 0.1 mm 4 mps 727 mmHg 96%
08:00 -26°C° 0 mm 4 mps 727 mmHg 95%
09:00 -26°C° 0 mm 4 mps 728 mmHg 94%
10:00 -26°C° 0 mm 5 mps 728 mmHg 92%
11:00 -26°C° 0 mm 5 mps 728 mmHg 92%
12:00 -25°C° 0 mm 5 mps 729 mmHg 91%
13:00 -25°C° 0 mm 5 mps 729 mmHg 91%
14:00 -24°C° 0 mm 5 mps 729 mmHg 89%
15:00 -23°C° 0 mm 4 mps 730 mmHg 88%
16:00 -23°C° 0 mm 4 mps 730 mmHg 87%
17:00 -24°C° 0 mm 4 mps 731 mmHg 90%
18:00 -24°C° 0 mm 3 mps 731 mmHg 94%
19:00 -24°C° 0 mm 2 mps 732 mmHg 98%
20:00 -25°C° 0 mm 2 mps 732 mmHg 98%
21:00 -26°C° 0 mm 2 mps 733 mmHg 99%
22:00 -26°C° 0 mm 2 mps 733 mmHg 99%
23:00 -24°C° 0 mm 1 mps 734 mmHg 99%

12 March, Friday

Time Temperature Precipitation Wind Pressure Humidity
00:00 -24°C° 0 mm 1 mps 734 mmHg 99%
01:00 -24°C° 0 mm 1 mps 734 mmHg 99%
02:00 -24°C° 0 mm 1 mps 734 mmHg 99%
03:00 -24°C° 0 mm 1 mps 734 mmHg 99%
04:00 -24°C° 0 mm 1 mps 734 mmHg 99%
05:00 -23°C° 0 mm 1 mps 735 mmHg 98%
06:00 -23°C° 0 mm 1 mps 735 mmHg 98%
07:00 -23°C° 0 mm 1 mps 735 mmHg 98%
08:00 -22°C° 0 mm 1 mps 736 mmHg 97%
09:00 -20°C° 0 mm 1 mps 736 mmHg 95%
10:00 -19°C° 0 mm 1 mps 737 mmHg 94%
11:00 -19°C° 0 mm 2 mps 737 mmHg 92%
12:00 -17°C° 0 mm 2 mps 737 mmHg 91%
13:00 -16°C° 0 mm 2 mps 738 mmHg 89%
14:00 -16°C° 0 mm 3 mps 738 mmHg 89%
15:00 -16°C° 0 mm 3 mps 738 mmHg 89%
16:00 -16°C° 0 mm 4 mps 738 mmHg 88%
17:00 -17°C° 0 mm 3 mps 738 mmHg 90%
18:00 -17°C° 0 mm 2 mps 738 mmHg 92%
19:00 -19°C° 0 mm 2 mps 738 mmHg 94%
20:00 -19°C° 0 mm 2 mps 739 mmHg 95%
21:00 -18°C° 0 mm 1 mps 739 mmHg 96%
22:00 -19°C° 0 mm 1 mps 740 mmHg 96%
23:00 -19°C° 0 mm 1 mps 740 mmHg 96%

13 March, Saturday

Time Temperature Precipitation Wind Pressure Humidity
00:00 -19°C° 0 mm 1 mps 740 mmHg 96%
01:00 -20°C° 0 mm 1 mps 740 mmHg 96%
02:00 -20°C° 0 mm 1 mps 741 mmHg 95%
03:00 -19°C° 0 mm 1 mps 741 mmHg 94%
04:00 -19°C° 0 mm 1 mps 741 mmHg 93%
05:00 -20°C° 0 mm 1 mps 741 mmHg 93%
06:00 -20°C° 0 mm 1 mps 741 mmHg 94%
07:00 -21°C° 0 mm 1 mps 742 mmHg 95%
08:00 -19°C° 0 mm 1 mps 742 mmHg 91%
09:00 -17°C° 0 mm 1 mps 742 mmHg 88%
10:00 -15°C° 0 mm 1 mps 742 mmHg 84%
11:00 -14°C° 0 mm 1 mps 742 mmHg 82%
12:00 -15°C° 0 mm 2 mps 743 mmHg 81%
13:00 -14°C° 0 mm 2 mps 743 mmHg 79%
14:00 -14°C° 0 mm 2 mps 742 mmHg 81%
15:00 -13°C° 0 mm 2 mps 742 mmHg 82%
16:00 -13°C° 0 mm 2 mps 742 mmHg 83%
17:00 -15°C° 0 mm 2 mps 742 mmHg 86%
18:00 -17°C° 0 mm 2 mps 742 mmHg 89%
19:00 -17°C° 0 mm 1 mps 742 mmHg 91%
20:00 -18°C° 0 mm 1 mps 742 mmHg 92%
21:00 -18°C° 0 mm 1 mps 742 mmHg 92%
22:00 -19°C° 0 mm 1 mps 742 mmHg 92%
23:00 -20°C° 0 mm 1 mps 742 mmHg 91%
Show more